# STATION: WBB,,,,,,
# STATION NAME: U of U William Browning Building,,,,,,
# LATITUDE: 40.76623,,,,,,
# LONGITUDE: -111.84755,,,,,,
# ELEVATION [ft]: 4806,,,,,,
# STATE: UT,,,,,,
Station_ID,Date_Time,air_temp_set_1,relative_humidity_set_1,wind_speed_set_1,wind_direction_set_1,wind_gust_set_1
WBB,11/30/2011 12:00 MST,41.83,65.03,7.36,275.9,12.71
WBB,11/30/2011 12:05 MST,42.15,63.24,6.82,283.9,13.49
WBB,11/30/2011 12:10 MST,42.4,62.89,6.44,300.8,12.88
WBB,11/30/2011 12:15 MST,41.92,64.74,9.46,292.5,13.56
WBB,11/30/2011 12:20 MST,41.61,65.4,9.4,290.3,16.67
WBB,11/30/2011 12:25 MST,41.76,64.47,7.02,288.8,14.47
WBB,11/30/2011 12:30 MST,41.11,62.54,6.93,296.2,12.88
WBB,11/30/2011 12:35 MST,40.26,55.46,11.43,312.8,20.65
WBB,11/30/2011 12:40 MST,39.06,57.24,13.62,319,20.69
WBB,11/30/2011 12:45 MST,40.35,56.89,9.53,288.7,15.77
WBB,11/30/2011 12:50 MST,40.55,57.8,10.85,280.4,15.9
WBB,11/30/2011 12:55 MST,39.85,59.45,7.05,287.5,13.02
WBB,11/30/2011 13:00 MST,39.58,61.89,7.23,282.1,14.79
WBB,11/30/2011 13:05 MST,39.04,65.71,10.8,304.7,15.48
WBB,11/30/2011 13:10 MST,38.07,69.02,10.96,319.2,15.7
WBB,11/30/2011 13:15 MST,37.45,72.12,9.57,323.5,13.98
WBB,11/30/2011 13:20 MST,37.24,74.39,5.41,311.7,10.87
WBB,11/30/2011 13:25 MST,37.2,77.28,8.19,317.6,12.15
WBB,11/30/2011 13:30 MST,36.46,81.4,11.5,322.8,15.82
WBB,11/30/2011 13:35 MST,35.58,84.6,9.86,324.8,12.88
WBB,11/30/2011 13:40 MST,35.49,85.8,9.19,329.3,11.92
WBB,11/30/2011 13:45 MST,35.56,86,6.24,313.1,11.83
WBB,11/30/2011 13:50 MST,36.48,85.4,3.71,286.6,7.85
WBB,11/30/2011 13:55 MST,37.2,83.7,2.53,303.9,6.62
WBB,11/30/2011 14:00 MST,37.4,82.5,3.38,4.6,5.57
WBB,11/30/2011 14:05 MST,37.87,79.01,4.97,359.8,8.28
WBB,11/30/2011 14:10 MST,37.74,75.35,6.11,354.1,9.73
WBB,11/30/2011 14:15 MST,37.65,74.23,6.98,351.5,10.49
WBB,11/30/2011 14:20 MST,37.71,74.77,3.36,340.3,6.13
WBB,11/30/2011 14:25 MST,38.16,73.81,2.53,281.7,5.3
WBB,11/30/2011 14:30 MST,38.68,72.35,4.25,267.4,7.76
WBB,11/30/2011 14:35 MST,38.34,74.79,7.92,257.3,10.4
WBB,11/30/2011 14:40 MST,37.56,77.8,9.93,258.2,12.8
WBB,11/30/2011 14:45 MST,37.38,79.29,6.78,278.9,12.15
WBB,11/30/2011 14:50 MST,37.24,79.28,4.7,292.6,8.68
WBB,11/30/2011 14:55 MST,37.8,78.94,3.42,272.9,7.31
WBB,11/30/2011 15:00 MST,39.51,73.55,3.2,302.2,7.99
WBB,11/30/2011 15:05 MST,39.49,73.55,2.73,239.5,5.48
WBB,11/30/2011 15:10 MST,39.94,71.33,1.07,295.3,4.16
WBB,11/30/2011 15:15 MST,39.69,69.32,3.42,266.2,6.31
WBB,11/30/2011 15:20 MST,39.18,71.39,4.63,253.4,10.13
WBB,11/30/2011 15:25 MST,38.16,74.29,5.73,270.8,10.78
WBB,11/30/2011 15:30 MST,37.62,75.79,6.11,270.8,9.64
WBB,11/30/2011 15:35 MST,37.26,77.88,8.63,268.2,13.06
WBB,11/30/2011 15:40 MST,37.36,77.85,6.71,277.2,11.63
WBB,11/30/2011 15:45 MST,37.44,77.66,5.75,271,11.01
WBB,11/30/2011 15:50 MST,37.09,78.72,6.82,274.2,10.74
WBB,11/30/2011 15:55 MST,36.97,80,5.79,300.5,10.33
WBB,11/30/2011 16:00 MST,36.73,80.5,4.36,294.5,8.19
WBB,11/30/2011 16:05 MST,36.91,80.6,1.9,309.3,4.47
WBB,11/30/2011 16:10 MST,37.02,80.6,3,315.9,6.31
WBB,11/30/2011 16:15 MST,36.61,81.7,5.3,310.6,8.39
WBB,11/30/2011 16:20 MST,36.28,83.1,4.03,305,6.44
WBB,11/30/2011 16:25 MST,36.52,82.3,3.87,293,6.98
WBB,11/30/2011 16:30 MST,36.66,81.7,2.95,284.2,6.31
WBB,11/30/2011 16:35 MST,36.7,81.6,3.71,286,6.17
WBB,11/30/2011 16:40 MST,36.57,81.7,3.96,299.3,6.49
WBB,11/30/2011 16:45 MST,36.63,81.7,3.09,292.1,5.53
WBB,11/30/2011 16:50 MST,36.59,82.6,4.38,297.1,6.53
WBB,11/30/2011 16:55 MST,36.3,83.6,6.26,309.1,8.77
WBB,11/30/2011 17:00 MST,36.23,80.7,8.86,314.9,11.43
WBB,11/30/2011 17:05 MST,36.18,79.28,10.67,319,13.6
WBB,11/30/2011 17:10 MST,36.1,78.61,11.3,322.4,13.47
WBB,11/30/2011 17:15 MST,36.19,78.33,11.32,319.9,14.47
WBB,11/30/2011 17:20 MST,36.28,78.26,10.49,320.3,13.76
WBB,11/30/2011 17:25 MST,36.19,78.83,10.02,324.2,12.28
WBB,11/30/2011 17:30 MST,36.21,79.03,11.61,329.5,14.52
WBB,11/30/2011 17:35 MST,36.23,79.28,11.18,323.1,14.83
WBB,11/30/2011 17:40 MST,36.16,79.87,10.38,329.7,13.65
WBB,11/30/2011 17:45 MST,36.07,80.3,10.54,320.6,12.93
WBB,11/30/2011 17:50 MST,35.73,81.9,10.54,324.4,13.69
WBB,11/30/2011 17:55 MST,35.47,82.9,9.69,333.3,12.71
WBB,11/30/2011 18:00 MST,35.35,83,8.79,345.1,13.02
WBB,11/30/2011 18:05 MST,35.29,83.2,7.72,356.8,11.01
WBB,11/30/2011 18:10 MST,35.31,81.2,11.1,358.1,16.31
WBB,11/30/2011 18:15 MST,34.84,82.1,11.5,356.3,15.97
WBB,11/30/2011 18:20 MST,34.41,83.4,11.61,11.69,16.26
WBB,11/30/2011 18:25 MST,34.14,84.9,7.81,27.91,10.04
WBB,11/30/2011 18:30 MST,34.41,84.8,5.17,63.33,8.12
WBB,11/30/2011 18:35 MST,34.63,84.9,1.68,58.64,3.2
WBB,11/30/2011 18:40 MST,35.04,84.2,2.01,200.9,3.15
WBB,11/30/2011 18:45 MST,35.49,82.7,2.33,300.9,3.89
WBB,11/30/2011 18:50 MST,35.8,80.7,1.43,282.7,3.02
WBB,11/30/2011 18:55 MST,36.16,80.2,0.65,240,2.24
WBB,11/30/2011 19:00 MST,35.94,80.2,0.4,137.7,1.52
WBB,11/30/2011 19:05 MST,35.8,81.2,0.6,329.1,3.15
WBB,11/30/2011 19:10 MST,35.73,79.31,3.4,325.1,4.21
WBB,11/30/2011 19:15 MST,35.8,78.24,3.89,336,5.17
WBB,11/30/2011 19:20 MST,35.85,76.21,3.18,336.9,5.03
WBB,11/30/2011 19:25 MST,36.3,72.5,1.81,349,3.78
WBB,11/30/2011 19:30 MST,36.88,69.56,2.53,288.1,4.43
WBB,11/30/2011 19:35 MST,36.59,77.21,2.64,269.8,4.21
WBB,11/30/2011 19:40 MST,36.25,77.56,2.8,244.4,4.38
WBB,11/30/2011 19:45 MST,36.19,77.86,1.95,179.6,3.11
WBB,11/30/2011 19:50 MST,36.27,77.91,2.68,189.9,3.8
WBB,11/30/2011 19:55 MST,36.45,75.28,2.48,204.1,4.16
WBB,11/30/2011 20:00 MST,36.79,67.51,2.62,250.8,4.92
WBB,11/30/2011 20:05 MST,37.09,70.84,1.32,294.4,2.93
WBB,11/30/2011 20:10 MST,36.25,76.85,4.07,92.7,4.92
WBB,11/30/2011 20:15 MST,35.85,78.42,2.86,161.7,3.65
WBB,11/30/2011 20:20 MST,36,78.35,2.91,139.4,3.94
WBB,11/30/2011 20:25 MST,36.25,75.73,1.77,173.7,3.2
WBB,11/30/2011 20:30 MST,36.39,76.39,0.22,70.74,1.05
WBB,11/30/2011 20:35 MST,36.3,75.43,1.25,253.2,2.28
WBB,11/30/2011 20:40 MST,36.46,74.63,1.61,251,3.24
WBB,11/30/2011 20:45 MST,36.57,75.74,0.94,259.5,2.01
WBB,11/30/2011 20:50 MST,36.28,76.91,1.48,260.5,2.55
WBB,11/30/2011 20:55 MST,36.19,76.24,1.25,264.1,2.71
WBB,11/30/2011 21:00 MST,35.85,77.33,1.79,126.8,4.05
WBB,11/30/2011 21:05 MST,35.64,77.62,1.34,82.2,3.15
WBB,11/30/2011 21:10 MST,35.56,76.8,2.82,229.4,4.65
WBB,11/30/2011 21:15 MST,36.01,72.81,2.06,211.2,3.89
WBB,11/30/2011 21:20 MST,35.74,73.05,2.24,227.8,5.35
WBB,11/30/2011 21:25 MST,36.19,66.78,4.74,246.6,6.58
WBB,11/30/2011 21:30 MST,35.89,70.17,4.61,261.2,6.67
WBB,11/30/2011 21:35 MST,35.35,72.68,2.04,278,5.03
WBB,11/30/2011 21:40 MST,35.08,73.79,3.02,94.2,3.89
WBB,11/30/2011 21:45 MST,35.2,71.76,2.33,128.6,3.6
WBB,11/30/2011 21:50 MST,35.71,64.98,4.43,130.9,8.32
WBB,11/30/2011 21:55 MST,35.85,61.25,8.95,94.3,12.8
WBB,11/30/2011 22:00 MST,35.94,60.77,7.87,83.1,11.59
WBB,11/30/2011 22:05 MST,36.03,60.91,5.28,64.29,9.33
WBB,11/30/2011 22:10 MST,36.21,60.24,4,317.1,5.95
WBB,11/30/2011 22:15 MST,36.63,59.73,1.05,250.6,2.64
WBB,11/30/2011 22:20 MST,36.91,58.63,1.12,288.3,2.75
WBB,11/30/2011 22:25 MST,36.91,58.95,1.34,308.5,2.37
WBB,11/30/2011 22:30 MST,36.79,61.16,0.78,2.63,2.55
WBB,11/30/2011 22:35 MST,36.28,63.21,2.15,322.3,4.7
WBB,11/30/2011 22:40 MST,35.8,65.2,2.37,313.1,3.69
WBB,11/30/2011 22:45 MST,35.89,65.35,0.74,276.3,1.83
WBB,11/30/2011 22:50 MST,36,64.82,0.74,206.3,2.06
WBB,11/30/2011 22:55 MST,35.76,64.59,1.14,110.5,1.68
WBB,11/30/2011 23:00 MST,35.91,63.51,1.07,198.7,2.06
WBB,11/30/2011 23:05 MST,36.34,62.97,1.01,251.6,2.55
WBB,11/30/2011 23:10 MST,36.72,58.35,2.57,249.5,6.98
WBB,11/30/2011 23:15 MST,37.13,55.77,1.66,281,5.53
WBB,11/30/2011 23:20 MST,37.08,58.32,1.34,250.7,3.24
WBB,11/30/2011 23:25 MST,36.45,61.47,2.66,219.6,5.17
WBB,11/30/2011 23:30 MST,36.27,61.86,1.81,187.7,3.38
WBB,11/30/2011 23:35 MST,36.12,62.83,2.44,187.5,4.25
WBB,11/30/2011 23:40 MST,36.07,62.26,2.13,249.9,3.38
WBB,11/30/2011 23:45 MST,36,61.28,3.91,268.1,6.35
WBB,11/30/2011 23:50 MST,36.23,60.18,2.95,289.9,6.53
WBB,11/30/2011 23:55 MST,36.45,58.93,2.75,298.7,5.57
WBB,12/01/2011 00:00 MST,36.07,61.04,3.42,47.28,6.13
WBB,12/01/2011 00:05 MST,35.91,60.47,1.25,170.5,2.64
WBB,12/01/2011 00:10 MST,36.09,61.14,1.39,275.8,2.89
WBB,12/01/2011 00:15 MST,36.07,61.69,3.04,169.6,5.03
WBB,12/01/2011 00:20 MST,35.56,63.03,3.11,182.7,4.29
WBB,12/01/2011 00:25 MST,35.67,63.86,1.83,245.5,3.94
WBB,12/01/2011 00:30 MST,35.64,62.73,4.32,227.5,5.48
WBB,12/01/2011 00:35 MST,35.82,61.5,2.98,207.4,5.48
WBB,12/01/2011 00:40 MST,35.94,61.74,3.56,221.4,6.26
WBB,12/01/2011 00:45 MST,35.64,61.19,5.01,231.1,6.58
WBB,12/01/2011 00:50 MST,35.38,63.95,4.81,268.1,7.63
WBB,12/01/2011 00:55 MST,34.74,66.12,3.56,263.1,5.84
WBB,12/01/2011 01:00 MST,34.99,65.45,2.26,312.6,6.17
WBB,12/01/2011 01:05 MST,34.84,65.83,2.59,3.91,4.16
WBB,12/01/2011 01:10 MST,34.83,65.75,2.13,352.2,4
WBB,12/01/2011 01:15 MST,34.74,66.33,1.19,30.36,3.69
WBB,12/01/2011 01:20 MST,34.56,64.66,1.5,306.5,4.76
WBB,12/01/2011 01:25 MST,34.63,64.27,0.92,210.5,2.19
WBB,12/01/2011 01:30 MST,34.65,64.62,1.68,145.9,3.24
WBB,12/01/2011 01:35 MST,34.63,65.99,2.95,175.9,5.08
WBB,12/01/2011 01:40 MST,34.52,63.36,3.71,292.2,6.17
WBB,12/01/2011 01:45 MST,34.29,63.12,4.07,277.5,8.86
WBB,12/01/2011 01:50 MST,34.16,63.7,2.3,312.5,3.94
WBB,12/01/2011 01:55 MST,34.03,64.31,4.63,304.5,9.04
WBB,12/01/2011 02:00 MST,34.3,63.7,4.85,255.9,9.37
WBB,12/01/2011 02:05 MST,34.3,62.56,3.87,145.3,8.55
WBB,12/01/2011 02:10 MST,34.92,58.38,7.09,221.2,10.22
WBB,12/01/2011 02:15 MST,35.85,56.38,7.96,258.3,11.88
WBB,12/01/2011 02:20 MST,36.45,51.64,9.19,262.4,14.79
WBB,12/01/2011 02:25 MST,37.76,42.96,13.04,350.4,25.95
WBB,12/01/2011 02:30 MST,37.87,44.71,14.36,328.9,29.42
WBB,12/01/2011 02:35 MST,38.01,43.54,11.05,354.9,18.23
WBB,12/01/2011 02:40 MST,37.87,45.34,8.93,326.2,20.29
WBB,12/01/2011 02:45 MST,37.96,43.63,10.2,93.4,26.35
WBB,12/01/2011 02:50 MST,38.3,41.62,6.24,256.8,17.09
WBB,12/01/2011 02:55 MST,38.03,43.36,8.21,317.9,17.22
WBB,12/01/2011 03:00 MST,38.1,40.87,11.79,58.46,29.73
WBB,12/01/2011 03:05 MST,38.25,40.19,12.35,19.09,21.83
WBB,12/01/2011 03:10 MST,37.99,41.26,8.23,18.18,17.87
WBB,12/01/2011 03:15 MST,38.01,41.63,4.52,352.5,11.48
WBB,12/01/2011 03:20 MST,38.07,41.56,5.59,310.6,12.1
WBB,12/01/2011 03:25 MST,38.17,35.37,22.24,59.96,49.57
WBB,12/01/2011 03:30 MST,38.41,33.83,33.58,51.7,48.92
WBB,12/01/2011 03:35 MST,38.44,33.6,41.18,56.1,56.46
WBB,12/01/2011 03:40 MST,38.64,33.14,50.64,58.6,68.83
WBB,12/01/2011 03:45 MST,38.46,33.82,49.77,56.8,69.43
WBB,12/01/2011 03:50 MST,38.53,33.58,50.76,58.54,67.47
WBB,12/01/2011 03:55 MST,38.19,35.26,38.25,61.37,54.22
WBB,12/01/2011 04:00 MST,38.17,35.25,36.95,58.87,54.67
WBB,12/01/2011 04:05 MST,38.16,35.1,36.91,60.3,54.87
WBB,12/01/2011 04:10 MST,38.23,34.99,29.93,63.03,51.02
WBB,12/01/2011 04:15 MST,37.83,36.07,29.86,60.46,40.02
WBB,12/01/2011 04:20 MST,37.83,35.65,30,61.33,41.11
WBB,12/01/2011 04:25 MST,37.72,35.88,28.99,62.26,39.71
WBB,12/01/2011 04:30 MST,37.53,36.19,28.25,61.94,40.42
WBB,12/01/2011 04:35 MST,37.44,36.51,23.35,66.4,36.69
WBB,12/01/2011 04:40 MST,37.2,37.14,22.77,73.16,44.13
WBB,12/01/2011 04:45 MST,37.36,36.66,26.35,73.13,48.38
WBB,12/01/2011 04:50 MST,37.47,36.94,24.67,82.4,41.94
WBB,12/01/2011 04:55 MST,37.65,36.86,20.89,72.22,37.45
WBB,12/01/2011 05:00 MST,37.6,36.89,22.75,74.26,48.27
WBB,12/01/2011 05:05 MST,37.49,36.8,16.8,70.98,32.93
WBB,12/01/2011 05:10 MST,37.36,36.28,20.56,63.14,41.47
WBB,12/01/2011 05:15 MST,37.18,36.44,18.39,79.99,31.61
WBB,12/01/2011 05:20 MST,37.33,35.82,23.42,58.35,42.61
WBB,12/01/2011 05:25 MST,37.27,35.96,18.54,64.19,29.89
WBB,12/01/2011 05:30 MST,37.26,35.65,22.1,60.78,36.31
WBB,12/01/2011 05:35 MST,37.62,33.92,26.93,51.69,45.81
WBB,12/01/2011 05:40 MST,37.38,35.06,23.55,62.64,44.49
WBB,12/01/2011 05:45 MST,37,35.91,26.4,76.26,53.66
WBB,12/01/2011 05:50 MST,37.06,35.55,31.56,68.76,52.86
WBB,12/01/2011 05:55 MST,36.93,35.83,27.36,69.73,48.09
WBB,12/01/2011 06:00 MST,36.82,36.08,28.01,72.21,56.28
WBB,12/01/2011 06:05 MST,36.81,35.25,37.85,65.88,53.66
WBB,12/01/2011 06:10 MST,36.82,34.98,36.55,64.2,60.76
WBB,12/01/2011 06:15 MST,36.9,34.51,34.65,65.67,50.47
WBB,12/01/2011 06:20 MST,36.99,33.71,41.81,69,59.14
WBB,12/01/2011 06:25 MST,36.75,33.94,40.71,67.2,55.9
WBB,12/01/2011 06:30 MST,36.57,33.84,40.31,64.36,55.86
WBB,12/01/2011 06:35 MST,36.43,34.25,29.64,67.52,47.51
WBB,12/01/2011 06:40 MST,36.23,34.56,32.88,66.49,50.89
WBB,12/01/2011 06:45 MST,35.92,35.25,38.9,67.74,56.77
WBB,12/01/2011 06:50 MST,35.82,35.46,35.16,63.84,48.88
WBB,12/01/2011 06:55 MST,35.91,35.26,32.55,65.74,47.33
WBB,12/01/2011 07:00 MST,35.94,35.11,32.53,65.38,52.52
WBB,12/01/2011 07:05 MST,35.91,34.88,39.24,68.82,55.05
WBB,12/01/2011 07:10 MST,35.82,34.93,35.52,67.21,54.09
WBB,12/01/2011 07:15 MST,35.78,34.82,35.3,68.51,58.47
WBB,12/01/2011 07:20 MST,35.73,34.45,38.61,70.32,59.48
WBB,12/01/2011 07:25 MST,35.87,33.51,41.05,68.97,58.09
WBB,12/01/2011 07:30 MST,35.87,33.5,38.05,62.74,50.58
WBB,12/01/2011 07:35 MST,36.12,32.73,44.31,61.96,64.22
WBB,12/01/2011 07:40 MST,36.12,32.75,43.31,61.4,55.05
WBB,12/01/2011 07:45 MST,36.21,32.36,41.85,62.7,66.84
WBB,12/01/2011 07:50 MST,36.28,32.04,41.7,63.73,56.73
WBB,12/01/2011 07:55 MST,36.28,31.91,46.37,61.74,61.16
WBB,12/01/2011 08:00 MST,36.43,31.41,45.95,64.27,64.04
WBB,12/01/2011 08:05 MST,36.39,31.42,46.15,64.46,61.16
WBB,12/01/2011 08:10 MST,36.52,31.11,42.95,62.38,57.56
WBB,12/01/2011 08:15 MST,36.43,31.3,40.58,65.28,56.33
WBB,12/01/2011 08:20 MST,36.05,31.79,40.85,61.96,55.19
WBB,12/01/2011 08:25 MST,36.39,31.09,37.92,56.49,58.79
WBB,12/01/2011 08:30 MST,36.19,31.57,30.29,68.26,43.31
WBB,12/01/2011 08:35 MST,35.87,31.81,30.71,64.14,46.55
WBB,12/01/2011 08:40 MST,35.67,31.77,38.14,61.08,52.9
WBB,12/01/2011 08:45 MST,35.56,31.39,35.1,63.89,49.97
WBB,12/01/2011 08:50 MST,35.64,31.08,41.32,60.98,57.82
WBB,12/01/2011 08:55 MST,35.58,31,40.31,58.28,60.02
WBB,12/01/2011 09:00 MST,35.49,30.85,46.44,57.12,60.76
WBB,12/01/2011 09:05 MST,35.73,30.29,49.32,59.4,61.99
WBB,12/01/2011 09:10 MST,36.16,29.58,40.98,59.43,56.06
WBB,12/01/2011 09:15 MST,36.21,29.27,46.55,57.99,60.44
WBB,12/01/2011 09:20 MST,36.75,28.28,48.34,61.42,64.27
WBB,12/01/2011 09:25 MST,37.08,27.89,47.85,58.23,65.74
WBB,12/01/2011 09:30 MST,37.09,27.82,47.18,58.99,60.49
WBB,12/01/2011 09:35 MST,37.27,27.61,44.22,61.93,63.91
WBB,12/01/2011 09:40 MST,37.62,26.99,45.77,62.83,57.42
WBB,12/01/2011 09:45 MST,37.65,26.77,43.37,62.69,61.67
WBB,12/01/2011 09:50 MST,37.56,26.97,44.02,64.27,61.25
WBB,12/01/2011 09:55 MST,37.81,26.32,44.2,64.79,64.13
WBB,12/01/2011 10:00 MST,37.8,26.43,37.89,68.07,61.25
WBB,12/01/2011 10:05 MST,38.05,26.46,34.18,76.83,53.91
WBB,12/01/2011 10:10 MST,37.47,27.81,33.38,78.86,54.96
WBB,12/01/2011 10:15 MST,38.21,26.35,36.84,74.57,51.76
WBB,12/01/2011 10:20 MST,37.24,28.32,20.33,83.4,33.31
WBB,12/01/2011 10:25 MST,36.81,28.81,18.86,90.9,34.07
WBB,12/01/2011 10:30 MST,36.9,28.67,18.21,68.16,34.81
WBB,12/01/2011 10:35 MST,37.02,29.22,18.05,76.85,26.64
WBB,12/01/2011 10:40 MST,36.45,29.69,20.49,75.54,32.79
WBB,12/01/2011 10:45 MST,36.48,29.57,19.22,63.27,32.84
WBB,12/01/2011 10:50 MST,36.57,29.76,19.01,76.02,27.09
WBB,12/01/2011 10:55 MST,36.57,29.74,12.64,64.96,24.34
WBB,12/01/2011 11:00 MST,37.35,28.76,8.1,23.02,12.28
WBB,12/01/2011 11:05 MST,38.16,27.97,5.21,3.03,10.69
WBB,12/01/2011 11:10 MST,38.5,28.09,10.02,103.5,18.37
WBB,12/01/2011 11:15 MST,36.64,30.08,22.28,87.4,33.26
WBB,12/01/2011 11:20 MST,36.57,30.28,24,95.9,31.29
WBB,12/01/2011 11:25 MST,36.91,30.22,30.65,84.6,39.37
WBB,12/01/2011 11:30 MST,37.47,29.87,23.13,84.6,32.21
WBB,12/01/2011 11:35 MST,37.56,29.78,22.39,85.3,33.02
WBB,12/01/2011 11:40 MST,36.28,30.96,18.99,77.69,27.92
WBB,12/01/2011 11:45 MST,36.34,31.08,14.54,107,22.44
WBB,12/01/2011 11:50 MST,36.43,31.16,13.73,101.7,22.84
WBB,12/01/2011 11:55 MST,36.5,31.35,11.99,85.8,20.47
WBB,12/01/2011 12:00 MST,36.61,31.24,16.4,93.4,27.27
WBB,12/01/2011 12:05 MST,36.57,31.08,17.78,91.8,25.34
WBB,12/01/2011 12:10 MST,36.52,31.7,18.5,81.4,30.65
WBB,12/01/2011 12:15 MST,36.21,31.81,21.7,86.9,31.7
WBB,12/01/2011 12:20 MST,36.54,31.66,18.5,92,27.58
WBB,12/01/2011 12:25 MST,36.37,31.99,20.74,98.3,28.1
WBB,12/01/2011 12:30 MST,36.27,31.6,23.62,101.8,33.76
WBB,12/01/2011 12:35 MST,36.14,31.97,24.34,102.8,34.27
WBB,12/01/2011 12:40 MST,35.8,32.3,22.03,96.3,34.16
WBB,12/01/2011 12:45 MST,35.44,32.95,22.19,106,34.85
WBB,12/01/2011 12:50 MST,35.22,33.33,22.15,98.4,34.23
WBB,12/01/2011 12:55 MST,35.13,33.92,20.2,99.9,27.92
WBB,12/01/2011 13:00 MST,35.13,34.44,18.23,97.3,25.55
WBB,12/01/2011 13:05 MST,35.4,33.84,16.6,101.5,22.1
WBB,12/01/2011 13:10 MST,35.19,33.7,10.8,87,23.49
WBB,12/01/2011 13:15 MST,35.94,32.98,3.42,52.97,9.37
WBB,12/01/2011 13:20 MST,35.29,34.02,14.65,83.5,26.17
WBB,12/01/2011 13:25 MST,34.92,34.51,11.77,54.69,18.19
WBB,12/01/2011 13:30 MST,34.21,35.63,16.51,43.87,26.26
WBB,12/01/2011 13:35 MST,34.3,35.73,7.67,32.4,18.14
WBB,12/01/2011 13:40 MST,35.17,34.74,2.84,317.2,6.93
WBB,12/01/2011 13:45 MST,36.12,33.47,4.18,311.1,10.87
WBB,12/01/2011 13:50 MST,35.92,33.87,6.46,260.8,12.06
WBB,12/01/2011 13:55 MST,37,32.77,5.14,304.8,10.18
WBB,12/01/2011 14:00 MST,37.81,32.32,5.93,256.1,11.36
WBB,12/01/2011 14:05 MST,37.58,32.11,5.99,262,14.16
WBB,12/01/2011 14:10 MST,37.29,32.76,8.23,208,12.88
WBB,12/01/2011 14:15 MST,37.18,32.91,11.5,250.2,19.1
WBB,12/01/2011 14:20 MST,37.89,32.29,6.73,288.1,17.92
WBB,12/01/2011 14:25 MST,36.95,33.07,7.67,132,17.72
WBB,12/01/2011 14:30 MST,36.72,33.24,16.53,46.58,34.54
WBB,12/01/2011 14:35 MST,36.19,33.75,18.72,33.14,29.46
WBB,12/01/2011 14:40 MST,35.83,34.25,13.44,50.87,25.48
WBB,12/01/2011 14:45 MST,35.94,34.3,12.88,44.41,24.94
WBB,12/01/2011 14:50 MST,36.28,34.16,11.12,70.7,24.11
WBB,12/01/2011 14:55 MST,35.31,35.37,24.11,77.62,35.95
WBB,12/01/2011 15:00 MST,35.47,35.15,14.36,61.54,27.4
WBB,12/01/2011 15:05 MST,36.01,34.5,15.05,70.78,27.27
WBB,12/01/2011 15:10 MST,36.43,33.88,10.13,67.17,24.43
WBB,12/01/2011 15:15 MST,36.3,34.12,13.89,65.46,25.12
WBB,12/01/2011 15:20 MST,36.55,33.69,9.73,58.81,16.26
WBB,12/01/2011 15:25 MST,36.66,33.56,5.95,127.1,20.11
WBB,12/01/2011 15:30 MST,36.93,33.24,12.91,98.4,25.39
WBB,12/01/2011 15:35 MST,36.01,34.38,15.12,83,33.71
WBB,12/01/2011 15:40 MST,37.13,32.8,5.1,172.1,8.86
WBB,12/01/2011 15:45 MST,36.54,33.45,14.43,108.8,29.89
WBB,12/01/2011 15:50 MST,36.73,33.73,10.8,123.1,19.82
WBB,12/01/2011 15:55 MST,36.91,33.14,9.84,145.9,21.47
WBB,12/01/2011 16:00 MST,37.02,32.97,8.59,94.9,14.61
WBB,12/01/2011 16:05 MST,36.7,33.32,10.13,109.8,19.77
WBB,12/01/2011 16:10 MST,36.16,33.95,15.28,76.52,24.43
WBB,12/01/2011 16:15 MST,36.88,32.76,6.29,33.45,16.17
WBB,12/01/2011 16:20 MST,37.15,32.53,9.51,94.6,19.64
WBB,12/01/2011 16:25 MST,36.61,33.15,10.54,85.2,26.35
WBB,12/01/2011 16:30 MST,36.57,32.84,11.86,118.9,22.79
WBB,12/01/2011 16:35 MST,36.27,33.14,15.12,53.76,30.56
WBB,12/01/2011 16:40 MST,37.17,32.13,6.71,209.1,15.57
WBB,12/01/2011 16:45 MST,36.46,32.72,5.99,76.91,13.47
WBB,12/01/2011 16:50 MST,35.98,33.42,8.63,86.3,20.15
WBB,12/01/2011 16:55 MST,35.17,34.84,18.28,77.34,28.19
WBB,12/01/2011 17:00 MST,35.24,34.42,17.74,67.22,29.33
WBB,12/01/2011 17:05 MST,35.26,34.31,19.44,69.87,25.68
WBB,12/01/2011 17:10 MST,34.92,35.01,14.32,63.38,24.94
WBB,12/01/2011 17:15 MST,34.86,35.54,10.16,57.28,15.86
WBB,12/01/2011 17:20 MST,34.86,35.64,10.13,82.7,17.76
WBB,12/01/2011 17:25 MST,34.45,36.5,11.9,96.3,16.22
WBB,12/01/2011 17:30 MST,34.11,37.16,17.6,85.6,29.51
WBB,12/01/2011 17:35 MST,33.73,37.82,18.81,93.1,32.21
WBB,12/01/2011 17:40 MST,33.35,38.71,22.37,91.4,34.54
WBB,12/01/2011 17:45 MST,33.12,39.31,20.4,95,29.97
WBB,12/01/2011 17:50 MST,33.04,39.51,22.57,92,30.65
WBB,12/01/2011 17:55 MST,32.4,40.97,22.08,98.8,32.88
WBB,12/01/2011 18:00 MST,32.22,41.15,27,89.3,38.41
WBB,12/01/2011 18:05 MST,31.98,41.85,31.81,83.3,43.75
WBB,12/01/2011 18:10 MST,31.62,42.59,37.27,82.8,47.47
WBB,12/01/2011 18:15 MST,31.24,43.81,35.34,82,45.14
WBB,12/01/2011 18:20 MST,31.33,43.69,32.01,80.9,42.43
WBB,12/01/2011 18:25 MST,31.93,42.49,32.5,78.86,41.85
WBB,12/01/2011 18:30 MST,32.4,41.68,33.38,76.13,43.17
WBB,12/01/2011 18:35 MST,32.34,41.91,32.35,75.24,40.42
WBB,12/01/2011 18:40 MST,32.25,42.04,32.3,76.2,41.34
WBB,12/01/2011 18:45 MST,32.02,42.67,30.87,76.79,43.31
WBB,12/01/2011 18:50 MST,31.89,42.82,33.58,78.15,42.66
WBB,12/01/2011 18:55 MST,31.46,43.74,32.01,82.2,41.38
WBB,12/01/2011 19:00 MST,31.14,44.51,27.76,85.6,39.24
WBB,12/01/2011 19:05 MST,30.51,45.8,28.12,92.4,36.86
WBB,12/01/2011 19:10 MST,30.34,46.27,23.33,90,32.53
WBB,12/01/2011 19:15 MST,30.42,46.15,20.22,95.8,28.72
WBB,12/01/2011 19:20 MST,30.7,45.22,22.3,93.2,33.35
WBB,12/01/2011 19:25 MST,30.96,44.51,24.52,89.8,31.97
WBB,12/01/2011 19:30 MST,32.11,41.59,25.55,84.3,38.05
WBB,12/01/2011 19:35 MST,32.85,39.84,26.04,84,41.34
WBB,12/01/2011 19:40 MST,33.33,38.88,27.54,79.22,36.04
WBB,12/01/2011 19:45 MST,33.6,38.35,25.21,76.08,36.95
WBB,12/01/2011 19:50 MST,33.51,38.11,23.49,75.71,35.3
WBB,12/01/2011 19:55 MST,33.66,37.52,17.98,69.57,25.08
WBB,12/01/2011 20:00 MST,33.82,36.73,19.35,62.43,29.86
WBB,12/01/2011 20:05 MST,33.55,37.22,23.4,58.74,36.46
WBB,12/01/2011 20:10 MST,33.33,37.73,22.39,59.96,33.4
WBB,12/01/2011 20:15 MST,33.31,37.66,19.86,61.43,32.06
WBB,12/01/2011 20:20 MST,32.9,38.66,24.61,64.6,40.69
WBB,12/01/2011 20:25 MST,32.74,38.77,27.6,61.77,37.78
WBB,12/01/2011 20:30 MST,32.74,38.57,27.09,61.57,41.43
WBB,12/01/2011 20:35 MST,32.43,39.2,28.97,60.48,42.9
WBB,12/01/2011 20:40 MST,32.11,40.07,29.73,68.56,48.09
WBB,12/01/2011 20:45 MST,32.22,39.55,27.74,69.28,41.47
WBB,12/01/2011 20:50 MST,32.43,38.75,30.13,62.38,43.89
WBB,12/01/2011 20:55 MST,32.38,38.94,28.23,63.78,47.65
WBB,12/01/2011 21:00 MST,32.38,38.64,31.72,68.09,42.7
WBB,12/01/2011 21:05 MST,33.19,36.54,26.31,69.15,38.54
WBB,12/01/2011 21:10 MST,32.77,37.53,22.08,58.48,32.84
WBB,12/01/2011 21:15 MST,32.38,38.73,21.43,70.65,35.81
WBB,12/01/2011 21:20 MST,32.29,38.62,30.29,67.15,48.23
WBB,12/01/2011 21:25 MST,32.43,38.26,27.04,69.28,42.75
WBB,12/01/2011 21:30 MST,32.22,38.79,27.11,69.14,41.7
WBB,12/01/2011 21:35 MST,32.07,38.99,28.59,61.64,40.98
WBB,12/01/2011 21:40 MST,32.56,37.51,26.78,65.53,36.51
WBB,12/01/2011 21:45 MST,32.67,37.24,24.9,66.68,37.92
WBB,12/01/2011 21:50 MST,32.61,37.43,24.18,58.69,33.58
WBB,12/01/2011 21:55 MST,32.41,38.05,18.92,73.12,36.42
WBB,12/01/2011 22:00 MST,32.49,37.43,22.06,71,39.24
WBB,12/01/2011 22:05 MST,32.79,36.7,22.01,63.5,31.34
WBB,12/01/2011 22:10 MST,32.16,38.3,15.88,63.01,25.95
WBB,12/01/2011 22:15 MST,31.84,39.28,12.84,52.63,25.59
WBB,12/01/2011 22:20 MST,30.96,41.46,11.41,59.65,21.92
WBB,12/01/2011 22:25 MST,30.7,41.91,10.31,50.93,22.1
WBB,12/01/2011 22:30 MST,30.43,42.41,15.48,20.91,24.49
WBB,12/01/2011 22:35 MST,30.61,41.78,11.88,12.64,20.47
WBB,12/01/2011 22:40 MST,31.17,39.88,18.37,61.34,25.64
WBB,12/01/2011 22:45 MST,30.76,41.31,14.97,75.25,27.31
WBB,12/01/2011 22:50 MST,30.27,42.45,3.96,38.41,18.63
WBB,12/01/2011 22:55 MST,30.25,42.55,3.13,24.93,8.81
WBB,12/01/2011 23:00 MST,30.33,41.8,12.03,22.46,19.42
WBB,12/01/2011 23:05 MST,30.94,39.99,19.84,24.71,31.16
WBB,12/01/2011 23:10 MST,31.28,39.07,21.39,28.65,31.29
WBB,12/01/2011 23:15 MST,32.02,36.92,22.57,39.81,31.92
WBB,12/01/2011 23:20 MST,32.49,36.39,14.79,35.16,20.69
WBB,12/01/2011 23:25 MST,31.39,38.74,20.18,57.19,28.63
WBB,12/01/2011 23:30 MST,32.32,36.16,16.08,49.23,24.2
WBB,12/01/2011 23:35 MST,31.59,38.42,16.71,53.54,25.17
WBB,12/01/2011 23:40 MST,31.26,39.16,16.37,48.43,23.89
WBB,12/01/2011 23:45 MST,30.76,40.31,13.98,43.36,21.25
WBB,12/01/2011 23:50 MST,31.33,38.57,9.13,32.95,16.26
WBB,12/01/2011 23:55 MST,31.59,38.26,6.11,61.33,12.5
WBB,12/02/2011 00:00 MST,31.33,38.9,6.33,32.13,11.7
WBB,12/02/2011 00:05 MST,31.51,38.52,9.75,34.38,17.27
WBB,12/02/2011 00:10 MST,31.8,38.44,9.33,36.55,15.75